W7DRM Weather Reports


time (UTC)temp
C
wind
direction
speed
KPH
gust
KPH
rain 1hr
cm
rain 24hr
cm
rain mn
cm
humidity
%
barometer
mb
20260505184104 25 260 4.8 11.3 0.00 0.00 0.00 26 1005.6
20260505183104 25 184 3.2 8.0 0.00 0.00 0.00 27 1005.8
20260505182104 24 313 3.2 9.7 0.00 0.00 0.00 26 1005.8
20260505181103 24 263 3.2 11.3 0.00 0.00 0.00 27 1005.9
20260505180104 23 204 1.6 12.9 0.00 0.00 0.00 28 1005.9
20260505175104 23 201 4.8 9.7 0.00 0.00 0.00 28 1005.9
20260505174103 23 204 4.8 14.5 0.00 0.00 0.00 27 1005.9
20260505173104 23 175 3.2 11.3 0.00 0.00 0.00 30 1005.9
20260505172103 22 158 4.8 14.5 0.00 0.00 0.00 30 1005.9
20260505171103 22 170 6.4 12.9 0.00 0.00 0.00 30 1005.9
20260505170104 22 180 8.0 12.9 0.00 0.00 0.00 31 1005.9
20260505165103 22 168 4.8 12.9 0.00 0.00 0.00 31 1005.8
20260505164104 21 188 8.0 14.5 0.00 0.00 0.00 31 1005.8
20260505163103 21 184 8.0 19.3 0.00 0.00 0.00 32 1005.7
20260505162104 21 159 6.4 20.9 0.00 0.00 0.00 33 1005.6
20260505161103 21 198 8.0 19.3 0.00 0.00 0.00 35 1005.5
20260505153104 19 168 6.4 11.3 0.00 0.00 0.00 41 1005.3
20260505152103 18 183 8.0 14.5 0.00 0.00 0.00 42 1005.1
20260505151104 18 177 8.0 20.9 0.00 0.00 0.00 41 1004.8
20260505150104 18 116 9.7 20.9 0.00 0.00 0.00 41 1004.7
20260505140104 13 338 1.6 8.0 0.00 0.00 0.00 58 1004.1
20260505130104 12 119 8.0 14.5 0.00 0.00 0.00 59 1003.2
20260505122103 11 184 0.0 1.6 0.00 0.00 0.00 62 1002.3
20260505121103 11 184 0.0 3.2 0.00 0.00 0.00 61 1002.0
20260505120104 11 195 0.0 3.2 0.00 0.00 0.00 60 1002.0
20260505115104 12 126 1.6 8.0 0.00 0.00 0.00 60 1001.8
20260505114103 12 168 0.0 4.8 0.00 0.00 0.00 59 1001.8
20260505113103 12 130 0.0 4.8 0.00 0.00 0.00 57 1001.7
20260505112104 12 107 0.0 1.6 0.00 0.00 0.00 57 1001.5
20260505102103 14 149 1.6 4.8 0.00 0.00 0.00 51 1001.3
20260505101104 14 175 1.6 4.8 0.00 0.00 0.00 51 1001.1
20260505100104 14 188 1.6 9.7 0.00 0.00 0.00 51 1001.0
20260505092104 15 192 4.8 11.3 0.00 0.00 0.00 47 1000.5
20260505091103 15 175 4.8 11.3 0.00 0.00 0.00 47 1000.5
20260505090104 15 175 4.8 11.3 0.00 0.00 0.00 47 1000.5
20260505085103 15 164 8.0 16.1 0.00 0.00 0.00 46 1000.5
20260505084104 15 197 11.3 19.3 0.00 0.00 0.00 46 1000.3
20260505083104 16 200 3.2 9.7 0.00 0.00 0.00 46 1000.3
20260505082103 16 246 1.6 9.7 0.00 0.00 0.00 45 1000.4
20260505081103 16 176 1.6 8.0 0.00 0.00 0.00 45 1000.2
20260505075104 16 338 1.6 4.8 0.00 0.00 0.00 45 1000.3
20260505074104 16 199 1.6 4.8 0.00 0.00 0.00 44 1000.4
20260505070104 17 176 3.2 8.0 0.00 0.00 0.00 42 1000.2
20260505065104 17 188 3.2 9.7 0.00 0.00 0.00 41 1000.2
20260505064104 17 183 3.2 4.8 0.00 0.00 0.00 40 1000.0
20260505062104 17 201 4.8 9.7 0.00 0.00 0.00 39 1000.0
20260505061103 17 178 1.6 9.7 0.00 0.00 0.00 40 1000.0
20260505060104 17 132 0.0 4.8 0.00 0.00 0.00 40 1000.0
20260505054105 18 135 1.6 4.8 0.00 0.00 0.00 39 999.9
20260505053103 17 187 1.6 8.0 0.00 0.00 0.00 38 999.9
20260505052106 18 166 1.6 4.8 0.00 0.00 0.00 39 999.9
20260505051104 18 128 3.2 8.0 0.00 0.00 0.00 38 999.9
20260505050103 19 106 1.6 8.0 0.00 0.00 0.00 36 999.9
20260505041104 20 90 3.2 8.0 0.00 0.00 0.00 36 999.4
20260505040104 21 264 0.0 4.8 0.00 0.00 0.00 32 999.4
20260505035104 21 33 1.6 3.2 0.00 0.00 0.00 29 999.3
20260505034104 21 65 1.6 4.8 0.00 0.00 0.00 28 999.2
20260505033104 22 31 1.6 4.8 0.00 0.00 0.00 28 998.9
20260505031104 23 120 1.6 4.8 0.00 0.00 0.00 29 998.9
20260505030103 23 348 3.2 4.8 0.00 0.00 0.00 27 998.8
20260505025104 23 326 4.8 9.7 0.00 0.00 0.00 26 998.7
20260505024103 24 319 4.8 9.7 0.00 0.00 0.00 25 998.5
20260505023104 25 324 6.4 12.9 0.00 0.00 0.00 25 998.4
20260505022104 25 316 4.8 12.9 0.00 0.00 0.00 24 998.3
20260505021103 26 331 14.5 20.9 0.00 0.00 0.00 11 998.4
20260504225104 30 313 8.0 19.3 0.00 0.00 0.00 12 999.7
20260504224104 30 317 11.3 20.9 0.00 0.00 0.00 12 999.7
20260504223104 30 302 9.7 24.1 0.00 0.00 0.00 12 999.9
20260504222104 30 291 4.8 19.3 0.00 0.00 0.00 13 999.8
20260504221104 30 285 6.4 14.5 0.00 0.00 0.00 16 999.9
20260504220104 30 294 8.0 22.5 0.00 0.00 0.00 18 1000.1
20260504215103 30 285 4.8 14.5 0.00 0.00 0.00 17 1000.2
20260504214103 30 287 4.8 14.5 0.00 0.00 0.00 20 1000.3
20260504213103 29 307 4.8 14.5 0.00 0.00 0.00 19 1000.4
20260504210104 28 19 6.4 12.9 0.00 0.00 0.00 22 1000.8
20260504205103 28 345 4.8 14.5 0.00 0.00 0.00 22 1000.9
20260504203103 28 335 4.8 14.5 0.00 0.00 0.00 21 1001.2
20260504202104 28 355 4.8 12.9 0.00 0.00 0.00 24 1001.4
20260504200103 27 275 3.2 4.8 0.00 0.00 0.00 26 1001.5
20260504195104 27 215 4.8 9.7 0.00 0.00 0.00 28 1001.7
20260504194103 27 250 3.2 9.7 0.00 0.00 0.00 28 1001.9
20260504193104 26 167 4.8 9.7 0.00 0.00 0.00 28 1002.0
20260504191104 26 232 3.2 12.9 0.00 0.00 0.00 30 1002.3
20260504185103 26 169 4.8 12.9 0.00 0.00 0.00 29 1002.5